Regional Weather Roundup
Issued by NWS

Home | Current Version | Previous Version | Text Only | Print | Product List | Glossary On
Versions: 1 2 3 4 5 6 7 8 9 10 11 12 13 14 15 16 17 18 19 20 21 22 23 24 25 26 27 28 29 30 31 32 33 34 35 36 37 38 39 40 41 42 43 44 45 46 47 48 49 50
401
ASUS43 KFSD 182110
RWRSD

WEATHER ROUNDUP FOR SOUTH DAKOTA
NATIONAL WEATHER SERVICE SIOUX FALLS SD
300 PM CST MON DEC 18 2017

NOTE: "FAIR" INDICATES FEW OR NO CLOUDS BELOW 12,000 FEET WITH NO
SIGNIFICANT WEATHER AND/OR OBSTRUCTIONS TO VISIBILITY.


SDZ001>005-009-010-012>017-182200-
NORTHWEST AND NORTH CENTRAL SOUTH DAKOTA

CITY           SKY/WX    TMP DP  RH WIND       PRES   REMARKS
BUFFALO          N/A     52  26  36 W28G36    29.59R
FAITH            N/A     50  26  39 W14       29.66R
MOBRIDGE       MOSUNNY   53  26  35 W13       29.60S
$$

SDZ012>016-024>037-041>051-057-063-072>074-182200-
SOUTHWEST AND SOUTH CENTRAL SOUTH DAKOTA

CITY           SKY/WX    TMP DP  RH WIND       PRES   REMARKS
RAPID CTY ARPT CLOUDY    60  26  27 W14       29.72S
PIERRE         CLOUDY    53  26  35 W14       29.67S
CUSTER         CLOUDY    42  23  46 W14       29.78S
ELLSWORTH AFB  CLOUDY    59  25  27 NW29      29.71S
PHILIP         CLOUDY    55  27  34 W16       29.70S
PINE RIDGE     CLOUDY    51  26  37 W15       29.79F
SPEARFISH      FAIR      54  25  32 W24G35    29.72S
WINNER         FAIR      55  27  34 W14       29.70F
$$

SDZ004>011-016>023-039-040-182200-
NORTHEAST SOUTH DAKOTA

CITY           SKY/WX    TMP DP  RH WIND       PRES   REMARKS
ABERDEEN       CLOUDY    49  27  42 W18G26    29.61F
WATERTOWN      SUNNY     44  29  55 SW15G24   29.63S
BROOKINGS      CLOUDY    46  26  45 W14       29.67
SISSETON         N/A     43  30  60 W15G21    29.58F
$$

SDZ017-020-022-023-036>040-048>070-182200-
SOUTHEAST SOUTH DAKOTA

CITY           SKY/WX    TMP DP  RH WIND       PRES   REMARKS
SIOUX FALLS    CLOUDY    50  27  40 SW12G18   29.70F
HURON          CLOUDY    53  26  35 W12       29.66F
CHAMBERLAIN    CLOUDY    56  28  34 W9G16     29.69S
MITCHELL       CLOUDY    51  27  39 SW14      29.69F
YANKTON        CLOUDY    51  26  37 SW13      29.73F
$$

ABBREVIATIONS USED IN REMARKS
   TC - TEMPERATURE IN CELSIUS
  WCI - WIND CHILL INDEX
   HX - HEAT INDEX
  VSB - VISIBILITY





USA.gov is the U.S. government's official web portal to all federal, state and local government web resources and services.